Regional Weather Roundup
Issued by NWS Lake Charles, LA

Home | Current Version | Previous Version | Text Only | Print | Product List | Glossary On
Versions: 1 2 3 4 5 6 7 8 9 10 11 12 13 14 15 16 17 18 19 20 21 22 23 24 25 26 27 28 29 30 31 32 33 34 35 36 37 38 39 40 41 42 43 44 45 46 47 48 49 50
650
ASUS44 KLCH 211910
RWRLCH
REGIONAL WEATHER ROUNDUP
NATIONAL WEATHER SERVICE LAKE CHARLES LA
200 PM CDT SAT APR 21 2018

Note: "fair" indicates few or no clouds below 12,000 feet with no
significant weather and/or obstructions to visibility.


ACROSS SOUTHEAST TEXAS

CITY           SKY/WX    TMP DP  RH WIND       PRES   REMARKS
BEAUMONT       PTSUNNY   73  63  70 SE16G29   30.00F
BEAUMONT CITY  CLOUDY    74  63  68 SE15G24   30.00F
ORANGE         FAIR      74  65  75 SE12G20   30.02F
JASPER         PTSUNNY   75  61  63 SE6       30.04F
$$

ACROSS CENTRAL LOUISIANA

CITY           SKY/WX    TMP DP  RH WIND       PRES   REMARKS
LEESVILLE      CLOUDY    75  59  57 SE9       30.01F
FULLERTON      FAIR      78  60  53 VRB6      30.01F
ALEXANDRIA INT FAIR      75  56  51 SE9G18    30.04F
ESLER FIELD    FAIR      77  54  44 SE10      30.06F
DERIDDER       FAIR      74  56  54 SE9       30.05F
OAKDALE        FAIR      76  60  57 S5        30.05F
OPELOUSAS      FAIR      76  59  55 SE10      30.06F
$$

ACROSS SOUTHWEST AND SOUTH CENTRAL LOUISIANA

CITY           SKY/WX    TMP DP  RH WIND       PRES   REMARKS
SULPHUR        NOT AVBL
LAKE CHARLES   CLOUDY    76  62  62 SE16      30.02F
CHENNAULT INT  PTSUNNY   75  64  69 SE17      30.05F
CAMERON PHI    CLEAR     72  66  83 E18G25    30.02F
DEQUINCY       CLOUDY    72  61  67 SE8       30.02F
JENNINGS       FAIR      77  62  61 SE14G21   30.05F
LAFAYETTE      FAIR      77  61  57 S8        30.07F
NEW IBERIA     PTSUNNY   77  57  50 S7        30.08F
ABBEVILLE      CLOUDY    75  61  63 S14G20    30.08F
PATTERSON      PTSUNNY   74  62  66 SE9       30.10F
SALT POINT       N/A    N/A N/A N/A SE12      30.08F
$$

SELECTED SITES ACROSS THE REGION

CITY           SKY/WX    TMP DP  RH WIND       PRES   REMARKS
HOUSTON BUSH   CLOUDY    72  65  78 E12       29.99F
HOUSTON HOBBY  LGT RAIN  73  69  87 E12       29.98F
GALVESTON      PTSUNNY   73  69  87 SE14      30.00R
COLLEGE STAT   CLOUDY    68  65  90 SE9       29.97F
CONROE         CLOUDY    73  65  75 SE13      29.99F
HUNTSVILLE     CLOUDY    73  61  65 S8G18     29.97F
LUFKIN         PTSUNNY   75  61  61 SE14      29.98F
SHREVEPORT     PTSUNNY   70  54  56 SE12      30.00F
MONROE         FAIR      72  51  47 S8        30.09F
NATCHEZ MS     FAIR      75  53  46 SW7       30.10F
BATON ROUGE    PTSUNNY   75  55  49 SE9       30.09F
N.O. INTL ARPT PTSUNNY   77  58  51 SE13      30.11F
SLIDELL        PTSUNNY   75  61  61 E12G17    30.11F
$$

MARINE REPORTS

STATION/POSITION TIME  SKY/WX   TEMP    WIND        PRES    VSBY
                                AIR SEA DIR/SP/G
                 (UTC)          (F)     (DEG/KT/KT) (MB)    (MI)
BUOY 30 S HIGH I 1750            70 70  110/ 16/ 19 1015.7
WVE H/P(F/S)=  4/ 6

SEA RIM ST PARK  1900            70     120/ 17/ 23 1016.1F
PORT ARTHUR      1848            70 67  120/ 10/ 16 1016.2F
SABINE PASS N    1848            69 70  120/ 18/ 24 1017.5F
TEXAS POINT      NOT AVBL
CALCASIEU PASS   1848            70 68  140/ 17/ 23 1015.6F
LK CHARLES BEACH 1848            74 67              1016.4F
MARSH ISLAND     NOT AVBL
FRESH WATER LOCK 1848            69 68              1018.6F
AMERADA PASS     1848            72 66  110/  4/  9 1019.2F
$$




USA.gov is the U.S. government's official web portal to all federal, state and local government web resources and services.